Rexburg, ID

5:45 AM MDT on June 23, 2017 (GMT -0600)
Rexburg-Madison County

Weather History for KRXE - May, 2014

Change the Weather History Date:

Wednesday, May 7, 2014

  Actual Average Record
Temperature  
Mean Temperature 44 °F 50 °F  
Max Temperature 54 °F 63 °F 78 °F (2004)
Min Temperature 34 °F 36 °F 22 °F (2010)
Degree Days  
Heating Degree Days 21 15  
Month to date heating degree days 82 113  
Since 1 July heating degree days 7386 7678  
Cooling Degree Days 0 0  
Month to date cooling degree days 0 0  
Year to date cooling degree days 0 0  
Moisture  
Dew Point 32 °F    
Average Humidity 63    
Maximum Humidity 85    
Minimum Humidity 41    
Precipitation  
Precipitation 0.10 in 0.05 in 1.00 in (1993)
Month to date precipitation 0.16 0.37  
Year to date precipitation 4.63 4.48  
Sea Level Pressure  
Sea Level Pressure 29.73 in    
Wind  
Wind Speed 9 mph (NNE)    
Max Wind Speed 15 mph    
Max Gust Speed 23 mph    
Visibility 10 miles    
Events Rain    
T = Trace of Precipitation, MM = Missing Value Source: NWS Daily Summary

Daily Weather History Graph

Daily Weather History Graph

Search for Another Location

Airport or City:

Trip Planner

Search our weather history database for the weather conditions in past years. The results will help you decide how hot, cold, wet, or windy it might be!

Date:

Astronomy

May. 07, 2014 Rise Set
Actual Time 6:11 AM MDT 8:37 PM MDT
Civil Twilight 5:38 AM MDT 9:09 PM MDT
Nautical Twilight 4:58 AM MDT 9:50 PM MDT
Astronomical Twilight 4:13 AM MDT 10:35 PM MDT
Moon 1:32 PM MDT (5/7) 2:26 AM MDT (5/7)
Length of Visible Light 15h 30m
Length of Day
14h 26m
First Quarter, 56% of the Moon is Illuminated
May 7
First Quarter
May 14
Full
May 21
Last Quarter
May 28
New
Jun 5
First Quarter

Hourly Weather History & Observations

Time (MDT) Temp. Windchill Dew Point Humidity Pressure Visibility Wind Dir Wind Speed Gust Speed Precip Events Conditions
12:53 AM 44.1 °F 40.1 °F 33.1 °F 65% 29.68 in 10.0 mi East 6.9 mph - N/A   Overcast
1:53 AM 44.1 °F 39.5 °F 32.0 °F 63% 29.65 in 10.0 mi ENE 8.1 mph - N/A   Overcast
2:53 AM 43.0 °F 39.5 °F 32.0 °F 65% 29.66 in 10.0 mi ENE 5.8 mph - N/A   Overcast
3:21 AM 43.0 °F 39.5 °F 30.9 °F 62% 29.71 in 10.0 mi NE 5.8 mph - N/A   Overcast
3:31 AM 43.0 °F 38.2 °F 30.9 °F 62% 29.71 in 10.0 mi NE 8.1 mph - N/A   Overcast
3:41 AM 43.0 °F 38.2 °F 30.9 °F 62% 29.71 in 10.0 mi NE 8.1 mph - N/A   Overcast
3:51 AM 42.8 °F 39.3 °F 30.2 °F 61% 29.71 in 10.0 mi ENE 5.8 mph - N/A   Overcast
3:53 AM 43.0 °F 38.8 °F 30.9 °F 62% 29.65 in 10.0 mi ENE 6.9 mph - N/A   Overcast
4:53 AM 42.1 °F 36.1 °F 30.9 °F 65% 29.65 in 10.0 mi NNE 10.4 mph - N/A   Overcast
5:53 AM 41.0 °F 35.2 °F 30.9 °F 67% 29.67 in 10.0 mi NE 9.2 mph - N/A   Overcast
6:20 AM 41.0 °F 35.8 °F 30.0 °F 65% 29.72 in 10.0 mi NE 8.1 mph - N/A   Overcast
6:53 AM 41.0 °F 37.1 °F 30.9 °F 67% 29.68 in 10.0 mi NE 5.8 mph - 0.00 in   Overcast
7:53 AM 37.0 °F 30.4 °F 32.0 °F 82% 29.72 in 10.0 mi NW 9.2 mph - 0.00 in Rain Light Rain
8:40 AM 36.0 °F 31.1 °F 34.0 °F 93% 29.74 in 10.0 mi NNW 5.8 mph - 0.01 in   Overcast
8:53 AM 36.0 °F 29.6 °F 34.0 °F 93% 29.73 in 10.0 mi North 8.1 mph - 0.01 in Rain Light Rain
9:05 AM 36.0 °F 31.1 °F 34.0 °F 93% 29.75 in 10.0 mi North 5.8 mph - 0.00 in Rain Light Rain
9:23 AM 36.0 °F 30.3 °F 34.0 °F 93% 29.75 in 10.0 mi North 6.9 mph - 0.00 in Rain Light Rain
9:53 AM 37.9 °F 30.9 °F 34.0 °F 86% 29.75 in 10.0 mi North 10.4 mph - 0.01 in Rain Light Rain
11:53 AM 37.0 °F 28.9 °F 34.0 °F 89% 29.77 in 7.0 mi North 12.7 mph 19.6 mph 0.03 in Rain Light Rain
12:53 PM 41.0 °F 34.7 °F 36.0 °F 82% 29.76 in 10.0 mi North 10.4 mph - 0.03 in Rain Light Rain
1:53 PM 45.0 °F 39.7 °F 37.0 °F 74% 29.73 in 10.0 mi NNE 10.4 mph - 0.01 in   Overcast
2:23 PM 46.9 °F - 36.0 °F 66% 29.75 in 10.0 mi NNE 8.1 mph - N/A   Mostly Cloudy
2:53 PM 48.9 °F - 37.0 °F 64% 29.72 in 10.0 mi NNE 11.5 mph 19.6 mph N/A   Scattered Clouds
4:53 PM 53.1 °F - 30.0 °F 41% 29.71 in 10.0 mi NNE 10.4 mph 17.3 mph N/A   Mostly Cloudy
5:53 PM 51.1 °F - 30.0 °F 44% 29.73 in 10.0 mi ENE 10.4 mph - N/A   Overcast
6:53 PM 52.0 °F - 30.0 °F 43% 29.74 in 10.0 mi ENE 9.2 mph - N/A   Mostly Cloudy
7:53 PM 52.0 °F - 28.9 °F 41% 29.78 in 10.0 mi NE 9.2 mph - N/A   Overcast
8:53 PM 46.0 °F 41.9 °F 27.0 °F 47% 29.82 in 10.0 mi North 8.1 mph - N/A   Clear
9:53 PM 43.0 °F 39.5 °F 27.0 °F 53% 29.85 in 10.0 mi North 5.8 mph - N/A   Clear
10:53 PM 39.0 °F 36.8 °F 27.0 °F 62% 29.87 in 10.0 mi NE 3.5 mph - N/A   Clear
11:53 PM 36.0 °F 31.1 °F 27.0 °F 70% 29.89 in 10.0 mi North 5.8 mph - N/A   Clear